AMC-4 (GE-4)

Last updated on Jan. 24, 2020, 4:41 a.m. UTC

1 25954U 99060A   20023.51931851  .00000080  00000-0  00000-0 0  9997
2 25954   0.1053 278.2050 0002383  29.7649 226.3751  1.00272774 20179
UTC
Height (km)
Latitude
Longitude
Inclination
Orbital Period
UTC large
Height (km)
Speed (km/s)
/
Latitude / Longitude
Inclination (degrees)
Orbital Period (minutes)
Azimuth
Elevation
Range (km)
Doppler Factor
iOS Compass Heading
iOS Angle

Next 30 passes for location: Hong Kong

Rise time Rise Azimuth (degrees) Set time Set Azimuth (degrees) Duration Max altitude (degrees)

No matching passes for this satellites